This is the latest recevied weather packets stored in our database for station/object APPOWX. If no packets are shown the sender has not sent any weather packets the latest 10 day(s).
| Time | Temp. | Humidity | Pressure | Rain* | Wind** | Luminosity | Snow |
|---|---|---|---|---|---|---|---|
| 1777127167 | 21.11° C | 65% | 1012.4 hPa | 0 mm | - | - | - |
| 1777127107 | 20.56° C | 66% | 1012.3 hPa | 0 mm | - | - | - |
| 1777127047 | 21.11° C | 67% | 1012.3 hPa | 0 mm | - | - | - |
| 1777126988 | 21.67° C | 65% | 1012.4 hPa | 0 mm | - | - | - |
| 1777126927 | 22.22° C | 64% | 1012.4 hPa | 0 mm | - | - | - |
| 1777126867 | 22.22° C | 62% | 1012.2 hPa | 0 mm | - | - | - |
| 1777126807 | 22.78° C | 63% | 1012.4 hPa | 0 mm | - | - | - |
| 1777126746 | 22.22° C | 63% | 1012.3 hPa | 0 mm | - | - | - |
| 1777126687 | 21.67° C | 64% | 1012.3 hPa | 0 mm | - | - | - |
| 1777126626 | 21.67° C | 67% | 1012.4 hPa | 0 mm | - | - | - |
| 1777126566 | 21.11° C | 65% | 1012.2 hPa | 0 mm | - | - | - |
| 1777126506 | 21.11° C | 66% | 1012.3 hPa | 0 mm | - | - | - |
| 1777126447 | 21.11° C | 65% | 1012.4 hPa | 0 mm | - | - | - |
| 1777126387 | 20.56° C | 67% | 1012.3 hPa | 0 mm | - | - | - |
| 1777126326 | 21.11° C | 65% | 1012.5 hPa | 0 mm | - | - | - |
| 1777126266 | 21.11° C | 67% | 1012 hPa | 0 mm | - | - | - |
| 1777126206 | 21.67° C | 66% | 1012.2 hPa | 0 mm | - | - | - |
| 1777126146 | 21.67° C | 67% | 1012.2 hPa | 0 mm | - | - | - |
| 1777126086 | 21.11° C | 68% | 1012.2 hPa | 0 mm | - | - | - |
| 1777126025 | 21.11° C | 67% | 1012.4 hPa | 0 mm | - | - | - |
| 1777125965 | 21.11° C | 66% | 1012.4 hPa | 0 mm | - | - | - |
| 1777125906 | 21.11° C | 67% | 1012.4 hPa | 0 mm | - | - | - |
| 1777125845 | 21.11° C | 67% | 1012.2 hPa | 0 mm | - | - | - |
| 1777125785 | 21.67° C | 64% | 1012.3 hPa | 0 mm | - | - | - |
| 1777125725 | 21.67° C | 64% | 1012.4 hPa | 0 mm | - | - | - |
* Rain latest hour (hover to see other rain measurements)
** Current wind speed in m/s (hover to see current wind gust speed)